[[{"header":{"parameterUnit":"m.s-1","parameterCategory":2,"la1":30.2991,"la2":30.254,"lo1":-89.0895,"lo2":-89.0444,"dy":0.0017,"dx":0.0017,"nx":28,"ny":28,"refTime":"2024-07-16T21:00:00:Z","depth":"0","parameterNumber":2,"parameterNumberName":"U-component_of_CURRENTS"},"data":[0,0,0,0,0,0,0,0,0,0,0,0,0,0,0,0,0,0,0,0,0,0,0,0,0,0,0,0,0,0,0,0,0,0,0,0,0,0,0,0,0,0,0,0,0,0,0,0,0,0,0,0,0,0,0,0,0,0,0.367,0.367,0,0.3675,0.3675,0.3674,0.3683,0.3683,0.3684,0.3685,0.3704,0.3704,0.3704,0,0,0,0,0,0,0,0,0,0,0,0,0,0.3595,0.3596,0.367,0.367,0.3671,0.3675,0.3675,0.3674,0.3682,0.3683,0.3684,0.3685,0.3704,0.3704,0.3704,0,0,0,0,0,0,0,0,0,0,0,0,0,0.3612,0.3597,0.367,0.368,0.3681,0.3675,0.3675,0.3674,0.3682,0.3683,0.3684,0.3685,0.3704,0.3704,0.3704,0.3683,0,0,0.3703,0.3703,0,0,0,0,0,0,0,0,0.3611,0.3614,0.3678,0.3679,0.3681,0.3684,0.3656,0.368,0.3682,0.3676,0.3685,0.3686,0.3701,0.3701,0.3692,0.3684,0.3685,0.3703,0.3703,0.3703,0.3703,0,0,0,0,0,0,0,0.361,0.3613,0.3666,0.3678,0.368,0.3659,0.3663,0.3659,0.3679,0.3677,0.3679,0.3688,0.3702,0.3692,0.3693,0.3685,0.3703,0.3703,0.3703,0.3703,0.3695,0.3694,0,0,0,0,0,0,0.3623,0.3613,0.3666,0.3667,0.3653,0.3661,0.3664,0.3677,0.3679,0.3682,0.3687,0.3688,0.3692,0.3693,0.3694,0.3665,0.3703,0.3703,0.3703,0.3695,0.3695,0.3694,0,0,0,0,0,0,0.3621,0.3628,0.3666,0.3644,0.3648,0.3662,0.3676,0.3677,0.367,0.3688,0.369,0.368,0.3693,0.3694,0.3686,0.3667,0.3703,0.3703,0.3695,0.3695,0.3694,0.3612,0,0,0,0,0,0,0.3619,0.3627,0.363,0.3645,0.365,0.3656,0.3676,0.3677,0.3677,0.3678,0.3682,0.3685,0.3694,0.3686,0.3686,0.3667,0.3703,0.3695,0.3695,0.3695,0.3614,0.3608,0.3603,0,0,0,0,0,0.3616,0.3626,0.3631,0.3637,0.3658,0.3656,0.3654,0.3664,0.3675,0.3662,0.3668,0.3685,0.3685,0.3685,0.3685,0.3666,0.3695,0.3695,0.3695,0.3617,0.361,0.3604,0,0,0,0,0,0,0.3606,0.3628,0.3634,0.3653,0.365,0.3659,0.3653,0.3659,0.3652,0.3658,0.3671,0.3673,0.3662,0.3679,0.3679,0.3668,0.3698,0.3697,0.3639,0.3632,0.3627,0.3619,0.3703,0,0,0,0,0,0.3603,0.3608,0.3624,0.3634,0.3634,0.3639,0.3639,0.3645,0.3648,0.3646,0.3642,0.3652,0.3659,0.3658,0.3663,0.3646,0.3679,0.3641,0.3636,0.3631,0.3627,0.3692,0.3692,0.3693,0.3693,0.3693,0,0,0.3603,0.3615,0.3619,0.363,0.3629,0.3607,0.3639,0.3639,0.3612,0.3649,0.3605,0.3628,0.3652,0.3635,0.3633,0.3646,0.3638,0.363,0.3625,0.3625,0.3692,0.3692,0.3692,0.3693,0.3693,0.3693,0,0,0.3589,0.3612,0.3599,0.3591,0.3593,0.359,0.3589,0.3585,0.3576,0.3546,0.3574,0.3588,0.3574,0.3592,0.3602,0.3573,0.3609,0.3576,0.3534,0.3597,0.3597,0.3598,0.3595,0.3596,0.3571,0.3571,0.3571,0,0.358,0.3572,0.3593,0.357,0.3556,0.3578,0.3546,0.3534,0.3523,0.3513,0.3524,0.3534,0.3555,0.3557,0.3547,0.3559,0.3582,0.3551,0.3588,0.3591,0.3593,0.359,0.3593,0.3567,0.3567,0.3568,0.3568,0,0.3545,0.3532,0.3524,0.3495,0.3482,0.3463,0.3455,0.3432,0.3428,0.3425,0.342,0.3453,0.3468,0.3476,0.3496,0.3519,0.3523,0.3574,0.3601,0.3588,0.3585,0.3589,0.3561,0.3563,0.3564,0.3565,0,0,0.3516,0.3502,0.349,0.3459,0.344,0.3421,0.3381,0.3351,0.3325,0.3328,0.3306,0.3332,0.3372,0.3389,0.3429,0.3477,0.3499,0.3523,0.3528,0.351,0.359,0.3355,0.3337,0.3564,0.3565,0.3566,0.3565,0,0.3466,0.3418,0.3418,0.3346,0.3314,0.3314,0.3268,0.3251,0.3244,0.3225,0.3283,0.3283,0.3332,0.3347,0.3402,0.3485,0.3514,0.3492,0.3616,0.3618,0.3403,0.3336,0.3145,0.3107,0.357,0.357,0.3571,0,0.34,0.3382,0.3321,0.3266,0.325,0.321,0.3154,0.3122,0.3122,0.3124,0.3157,0.32,0.3254,0.3314,0.3433,0.3417,0.3491,0.3554,0.3558,0.3372,0.339,0.3207,0.3099,0.3007,0.3578,0.3578,0.3577,0,0.3345,0.3291,0.3242,0.3223,0.3179,0.3143,0.3116,0.3094,0.3065,0.3077,0.3071,0.3143,0.3176,0.3298,0.3397,0.3432,0.352,0.3596,0.3444,0.3428,0.3303,0.3271,0.3112,0.3684,0.3684,0.3684,0.3684,0,0.3277,0.3225,0.3213,0.3184,0.3115,0.3099,0.303,0.3016,0.3002,0.297,0.3031,0.3022,0.3183,0.3241,0.3363,0.3364,0.3495,0.3399,0.3405,0.3258,0.3224,0.3171,0.3159,0.3684,0.3684,0.3684,0.3684,0,0.3217,0.3207,0.3149,0.311,0.3089,0.3045,0.2985,0.2942,0.2936,0.2903,0.2906,0.294,0.2973,0.3086,0.3247,0.3268,0.3208,0.332,0.308,0.3053,0.2763,0.2753,0.2524,0.2482,0.3128,0.3122,0.3117,0,0.3185,0.3153,0.3109,0.308,0.3061,0.3,0.2953,0.2919,0.288,0.2843,0.2825,0.2818,0.278,0.284,0.2872,0.2933,0.2975,0.2793,0.2813,0.2656,0.2659,0.2614,0.2599,0.2627,0.2619,0.2612,0.2606,0,0.3141,0.313,0.3106,0.3042,0.299,0.292,0.2857,0.2808,0.2764,0.2717,0.2636,0.2592,0.2546,0.2445,0.2451,0.2508,0.2571,0.2639,0.2592,0.2296,0.2134,0.2127,0.2692,0.2543,0.2549,0.2554,0.2557,0.256,0.3126,0.3095,0.3062,0.2983,0.2926,0.2825,0.2715,0.2657,0.2553,0.2399,0.2457,0.2281,0.216,0.2084,0.2105,0.194,0.2085,0.1928,0.1945,0.1928,0.1801,0.214,0.1921,0.1924,0.1926,0.1928,0.193,0,0.3067,0.3038,0.2992,0.2875,0.2764,0.2756,0.2623,0.2474,0.23,0.2193,0.2078,0.1813,0.1649,0.1575,0.1402,0.1305,0.1355,0.1285,0.1259,0.1305,0.1704,0.1593,0.1151,0.1151,0.1151,0.1151,0.1152,0.1152,0.3045,0.2967,0.292,0.2725,0.2637,0.2409,0.23,0.2119,0.198,0.1659,0.1433,0.1356,0.1219,0.0993,0.0832,0.0839,0.0856,0.0705,0.0843,0.1185,0.125,0.1313,0.1205,0.069,0.0689,0.04,0.0397,0.0395]},{"header":{"parameterUnit":"m.s-1","parameterCategory":2,"la1":30.2991,"la2":30.254,"lo1":-89.0895,"lo2":-89.0444,"dy":0.0017,"dx":0.0017,"nx":28,"ny":28,"refTime":"2024-07-16T21:00:00:Z","depth":"0","parameterNumber":3,"parameterNumberName":"V-component_of_CURRENTS"},"data":[0,0,0,0,0,0,0,0,0,0,0,0,0,0,0,0,0,0,0,0,0,0,0,0,0,0,0,0,0,0,0,0,0,0,0,0,0,0,0,0,0,0,0,0,0,0,0,0,0,0,0,0,0,0,0,0,0,0,0.0404,0.0405,0,0.058,0.0582,0.0584,0.0652,0.0652,0.0651,0.0651,0.0797,0.0801,0.0805,0,0,0,0,0,0,0,0,0,0,0,0,0,0.0232,0.0234,0.0403,0.0406,0.0408,0.058,0.0582,0.0584,0.0652,0.0652,0.0651,0.065,0.0795,0.08,0.0806,0,0,0,0,0,0,0,0,0,0,0,0,0,0.0347,0.0235,0.0403,0.0462,0.0469,0.0579,0.0582,0.0585,0.0652,0.0652,0.0651,0.065,0.0793,0.08,0.0806,0.0863,0,0,0.0826,0.0829,0,0,0,0,0,0,0,0,0.0341,0.0354,0.0451,0.0458,0.0466,0.0593,0.0575,0.0676,0.0653,0.0583,0.0651,0.065,0.0726,0.0738,0.0774,0.087,0.0876,0.0827,0.0831,0.0834,0.0836,0,0,0,0,0,0,0,0.0333,0.0347,0.0474,0.0454,0.0463,0.0516,0.0531,0.0596,0.0657,0.0589,0.0594,0.0614,0.073,0.0768,0.0778,0.0878,0.0827,0.0833,0.0837,0.0839,0.1062,0.1064,0,0,0,0,0,0,0.0306,0.0339,0.0468,0.0479,0.04,0.0519,0.0536,0.0553,0.0657,0.0672,0.0614,0.0616,0.0757,0.077,0.0783,0.0884,0.0834,0.084,0.0844,0.106,0.1063,0.1065,0,0,0,0,0,0,0.0301,0.0315,0.0461,0.0413,0.0435,0.0522,0.0542,0.0557,0.0596,0.0676,0.069,0.0637,0.0757,0.0774,0.0852,0.0889,0.0843,0.0849,0.1058,0.1061,0.1064,0.1069,0,0,0,0,0,0,0.0296,0.0313,0.0321,0.0411,0.0437,0.0531,0.0543,0.0561,0.0609,0.0613,0.0701,0.0714,0.0757,0.0842,0.0859,0.0897,0.0854,0.1055,0.1059,0.1063,0.1066,0.1071,0.1076,0,0,0,0,0,0.0289,0.0304,0.032,0.0336,0.0443,0.0532,0.0551,0.0611,0.0611,0.064,0.0697,0.0711,0.0877,0.0849,0.0868,0.0909,0.1054,0.1058,0.1062,0.1064,0.107,0.1076,0,0,0,0,0,0,0.0246,0.0315,0.0334,0.0373,0.0447,0.0543,0.0574,0.061,0.068,0.068,0.074,0.0759,0.0841,0.0876,0.0843,0.0985,0.0967,0.0976,0.0962,0.0968,0.0973,0.0968,0.086,0,0,0,0,0,0.0236,0.0257,0.0343,0.0375,0.0406,0.0487,0.0529,0.0574,0.0645,0.0675,0.0734,0.0802,0.0877,0.0919,0.0986,0.1065,0.1061,0.1104,0.1109,0.1113,0.1122,0.1144,0.1151,0.1079,0.1079,0.1079,0,0,0.023,0.0269,0.0284,0.0366,0.0422,0.0493,0.0511,0.0578,0.0641,0.068,0.077,0.082,0.0901,0.0992,0.1032,0.1025,0.1128,0.1118,0.1121,0.1129,0.1149,0.1156,0.1162,0.1082,0.1082,0.1081,0,0,0.0237,0.0261,0.0289,0.0349,0.0433,0.0492,0.0507,0.0605,0.0648,0.0742,0.0785,0.0856,0.0968,0.1038,0.1087,0.1161,0.115,0.1179,0.1208,0.1229,0.1234,0.1239,0.1216,0.1219,0.1186,0.1186,0.1186,0,0.0233,0.0281,0.0316,0.037,0.0426,0.0488,0.0555,0.0619,0.0731,0.0775,0.0768,0.0941,0.0996,0.112,0.1148,0.1173,0.1161,0.1174,0.1232,0.1237,0.1242,0.1217,0.122,0.1187,0.1187,0.1186,0.1186,0,0.0278,0.032,0.0344,0.0429,0.0491,0.0557,0.0647,0.0706,0.0752,0.082,0.0929,0.1005,0.1105,0.1137,0.117,0.1251,0.1221,0.1227,0.1207,0.1249,0.1221,0.1223,0.1188,0.1187,0.1187,0.1187,0,0,0.0281,0.0359,0.0372,0.0418,0.0529,0.059,0.0681,0.0795,0.0856,0.094,0.1026,0.1147,0.1165,0.1221,0.1265,0.1292,0.1305,0.1272,0.1273,0.1231,0.1311,0.1284,0.1284,0.131,0.1312,0.1313,0.1267,0,0.032,0.0402,0.0443,0.0548,0.0609,0.0683,0.0764,0.0865,0.094,0.1032,0.1106,0.1198,0.1206,0.1247,0.1278,0.1312,0.1317,0.1314,0.1295,0.1294,0.125,0.129,0.1254,0.1211,0.1269,0.127,0.127,0,0.0375,0.0421,0.0507,0.0607,0.064,0.0707,0.0838,0.092,0.1046,0.1098,0.1186,0.124,0.1325,0.1303,0.1355,0.1346,0.1328,0.1331,0.1329,0.1309,0.1274,0.1188,0.1213,0.1225,0.1274,0.1274,0.1273,0,0.0378,0.0478,0.0538,0.058,0.0697,0.0745,0.0812,0.0938,0.1009,0.1132,0.1185,0.1284,0.1331,0.1342,0.1353,0.1349,0.1373,0.1367,0.1319,0.1314,0.1286,0.1278,0.131,0.1379,0.1379,0.1379,0.1379,0,0.0425,0.0483,0.0535,0.0579,0.0658,0.0738,0.0834,0.0914,0.1027,0.1116,0.1204,0.128,0.134,0.1372,0.136,0.1347,0.1372,0.133,0.1315,0.1285,0.1277,0.1288,0.1313,0.1377,0.1378,0.1378,0.1378,0,0.0447,0.0478,0.055,0.0635,0.0661,0.0718,0.0827,0.09,0.0994,0.1109,0.1145,0.1274,0.1316,0.1347,0.1368,0.1352,0.135,0.1322,0.1263,0.1244,0.1217,0.1244,0.1256,0.1313,0.1267,0.1267,0.1266,0,0.0473,0.0503,0.0567,0.0594,0.0632,0.071,0.0768,0.0874,0.0953,0.1106,0.1163,0.1245,0.1316,0.1332,0.1319,0.1285,0.1317,0.1226,0.1233,0.1222,0.1241,0.1246,0.1296,0.1177,0.1176,0.1175,0.1174,0,0.0522,0.0524,0.0572,0.0605,0.0653,0.0724,0.081,0.0861,0.0993,0.1076,0.1188,0.1248,0.1285,0.1271,0.1238,0.122,0.1253,0.1203,0.1223,0.1209,0.1187,0.1232,0.1171,0.1165,0.1166,0.1166,0.1167,0.1167,0.0547,0.0567,0.0593,0.0632,0.0682,0.0746,0.0791,0.0881,0.0979,0.1097,0.1163,0.1217,0.1221,0.119,0.1175,0.113,0.1188,0.1115,0.1152,0.1159,0.1221,0.1124,0.109,0.1091,0.1091,0.1092,0.1092,0,0.057,0.0584,0.062,0.0663,0.0706,0.0735,0.0829,0.0858,0.0943,0.104,0.111,0.1105,0.1107,0.1097,0.1059,0.1072,0.1104,0.109,0.1101,0.1164,0.1089,0.1092,0.1021,0.1021,0.1021,0.1021,0.1021,0.1021,0.0586,0.0605,0.0613,0.0673,0.0703,0.0744,0.0785,0.0817,0.0874,0.0903,0.091,0.0949,0.0993,0.1001,0.1038,0.1057,0.1153,0.11,0.1204,0.1141,0.1147,0.1152,0.1161,0.1105,0.1105,0.1259,0.1261,0.1262]}],[{"header":{"parameterUnit":"m.s-1","parameterCategory":2,"la1":30.2991,"la2":30.254,"lo1":-89.0895,"lo2":-89.0444,"dy":0.0017,"dx":0.0017,"nx":28,"ny":28,"refTime":"2024-07-16T21:00:00:Z","depth":"2","parameterNumber":2,"parameterNumberName":"U-component_of_CURRENTS"},"data":[0,0,0,0,0,0,0,0,0,0,0,0,0,0,0,0,0,0,0,0,0,0,0,0,0,0,0,0,0,0,0,0,0,0,0,0,0,0,0,0,0,0,0,0,0,0,0,0,0,0,0,0,0,0,0,0,0,0,0.2314,0.2319,0,0.2558,0.2558,0.2558,0.2562,0.2562,0.2562,0.2562,0.2789,0.2794,0.28,0,0,0,0,0,0,0,0,0,0,0,0,0,0.2194,0.2191,0.2314,0.232,0.2326,0.2558,0.2558,0.2558,0.2562,0.2562,0.2562,0.2562,0.2787,0.2794,0.2801,0,0,0,0,0,0,0,0,0,0,0,0,0,0.229,0.219,0.2313,0.238,0.2391,0.2558,0.2558,0.2558,0.2562,0.2562,0.2562,0.2562,0.2784,0.2793,0.2802,0.2858,0,0,0.283,0.2833,0,0,0,0,0,0,0,0,0.2284,0.229,0.2364,0.2376,0.2389,0.2559,0.2601,0.2669,0.2562,0.2462,0.2562,0.2562,0.2732,0.2745,0.2744,0.2869,0.2878,0.283,0.2836,0.284,0.2842,0,0,0,0,0,0,0,0.2277,0.2282,0.2376,0.2372,0.2387,0.2519,0.2525,0.2613,0.2568,0.2471,0.248,0.256,0.2734,0.2735,0.275,0.2882,0.283,0.2838,0.2844,0.2847,0.3056,0.3056,0,0,0,0,0,0,0.2295,0.2273,0.2369,0.2387,0.2373,0.2522,0.2528,0.2477,0.2568,0.2591,0.256,0.256,0.2719,0.2739,0.2758,0.2848,0.284,0.2848,0.2853,0.3056,0.3056,0.3056,0,0,0,0,0,0,0.2289,0.2295,0.236,0.2372,0.2393,0.2525,0.2468,0.2483,0.2549,0.2642,0.2658,0.2623,0.272,0.2745,0.283,0.2857,0.2852,0.286,0.3056,0.3056,0.3056,0.3018,0,0,0,0,0,0,0.2281,0.2287,0.2276,0.2367,0.2394,0.2484,0.2472,0.2489,0.2611,0.2613,0.2701,0.2717,0.2722,0.2816,0.2839,0.2869,0.2868,0.3056,0.3056,0.3056,0.3019,0.3017,0.3015,0,0,0,0,0,0.2274,0.2268,0.2269,0.2287,0.236,0.249,0.2511,0.2589,0.2615,0.2643,0.2672,0.2718,0.2833,0.2823,0.2851,0.2884,0.3055,0.3056,0.3056,0.302,0.3017,0.3015,0,0,0,0,0,0,0.2187,0.2274,0.2276,0.2284,0.2396,0.2504,0.2575,0.2634,0.268,0.27,0.2734,0.2751,0.2834,0.2869,0.2857,0.2939,0.2949,0.2955,0.2912,0.2911,0.2909,0.2903,0.2875,0,0,0,0,0,0.217,0.2191,0.2296,0.2312,0.2368,0.2478,0.2556,0.2622,0.2695,0.2717,0.2764,0.2811,0.2848,0.2888,0.2932,0.3002,0.3,0.3035,0.3033,0.3031,0.3042,0.3051,0.3051,0.3057,0.3057,0.3057,0,0,0.2158,0.221,0.2226,0.2305,0.2383,0.245,0.2514,0.2659,0.2696,0.2742,0.2784,0.2832,0.2867,0.2905,0.2947,0.2946,0.3017,0.3031,0.3029,0.3042,0.3051,0.3051,0.305,0.3057,0.3057,0.3057,0,0,0.2199,0.2169,0.2234,0.2305,0.2476,0.2507,0.2566,0.2694,0.2723,0.2795,0.2813,0.2872,0.2941,0.2946,0.296,0.2992,0.3013,0.302,0.3007,0.3015,0.3014,0.3014,0.2958,0.2953,0.301,0.301,0.301,0,0.2209,0.223,0.2287,0.2367,0.2426,0.2526,0.2599,0.2636,0.2769,0.2797,0.2807,0.2891,0.2944,0.297,0.2959,0.2991,0.2976,0.301,0.3011,0.3011,0.3012,0.2955,0.295,0.3008,0.3008,0.3008,0.3008,0,0.229,0.2319,0.2368,0.2435,0.2489,0.2586,0.2643,0.2691,0.2734,0.2779,0.285,0.2887,0.2936,0.2956,0.2968,0.3004,0.2981,0.3012,0.3014,0.3009,0.2949,0.2944,0.3005,0.3006,0.3007,0.3007,0,0,0.2304,0.2408,0.2431,0.2449,0.2534,0.2581,0.261,0.2669,0.2691,0.2774,0.2793,0.2859,0.2916,0.2936,0.2974,0.2981,0.2959,0.2998,0.2999,0.2935,0.2927,0.2603,0.2567,0.2991,0.2991,0.2991,0.2864,0,0.2371,0.2489,0.2511,0.2565,0.2607,0.2629,0.2622,0.268,0.2706,0.273,0.2797,0.2839,0.2892,0.2927,0.2945,0.2988,0.2955,0.2988,0.295,0.2948,0.2655,0.2554,0.2524,0.2382,0.286,0.2859,0.2859,0,0.2459,0.2506,0.2591,0.2592,0.2609,0.2634,0.2615,0.2644,0.2684,0.271,0.277,0.2815,0.2875,0.2899,0.2937,0.2958,0.2937,0.2936,0.2932,0.2646,0.2616,0.2477,0.2356,0.2852,0.2852,0.2853,0.2853,0,0.2467,0.2548,0.2591,0.2604,0.2627,0.2647,0.2652,0.2675,0.2683,0.2727,0.2735,0.2801,0.2852,0.2862,0.2892,0.2918,0.2882,0.2915,0.2579,0.2556,0.2528,0.2497,0.2884,0.2884,0.2884,0.2884,0.2885,0,0.2526,0.2575,0.2602,0.264,0.2641,0.2657,0.2669,0.2687,0.27,0.2693,0.2757,0.2751,0.2854,0.2853,0.2854,0.268,0.2854,0.2532,0.2489,0.25,0.247,0.2906,0.291,0.288,0.2881,0.2882,0.2882,0,0.2593,0.2629,0.2666,0.2676,0.2676,0.2693,0.2695,0.2682,0.271,0.2698,0.2714,0.2746,0.2713,0.2733,0.2732,0.2594,0.2489,0.238,0.2334,0.228,0.2156,0.216,0.1947,0.1934,0.1923,0.1914,0.1907,0,0.2654,0.2686,0.269,0.2683,0.2714,0.2722,0.2708,0.2715,0.2686,0.2671,0.2646,0.2625,0.2539,0.2363,0.2228,0.2056,0.2219,0.1796,0.1796,0.2072,0.2056,0.2077,0.2096,0.1766,0.1758,0.1751,0.1746,0,0.2718,0.2727,0.2719,0.2711,0.2706,0.2677,0.2668,0.2626,0.2596,0.2556,0.2466,0.2397,0.2226,0.1997,0.1727,0.1637,0.1811,0.1629,0.2006,0.1942,0.1873,0.1865,0.1896,0.1687,0.1693,0.1697,0.17,0.1703,0.2726,0.2716,0.2687,0.2673,0.2648,0.2593,0.2515,0.2455,0.2361,0.2179,0.2231,0.2004,0.1924,0.1417,0.1318,0.1204,0.1278,0.1197,0.1233,0.1273,0.1208,0.1117,0.0776,0.0777,0.0777,0.0778,0.0778,0,0.2651,0.2663,0.264,0.257,0.2493,0.2541,0.2416,0.2258,0.2062,0.1927,0.1776,0.1453,0.1231,0.1174,0.091,0.0729,0.0923,0.0679,0.1016,0.1069,0.1119,0.1064,0.0585,0.0584,0.0583,0.0582,0,0,0.2613,0.2552,0.253,0.2399,0.2371,0.2202,0.2101,0.1875,0.1701,0.1386,0.1195,0.112,0.1099,0.083,0.0769,0.0656,0.0887,0.0628,0.079,0.1247,0.1297,0.1408,0.1374,0,0,0,0,0]},{"header":{"parameterUnit":"m.s-1","parameterCategory":2,"la1":30.2991,"la2":30.254,"lo1":-89.0895,"lo2":-89.0444,"dy":0.0017,"dx":0.0017,"nx":28,"ny":28,"refTime":"2024-07-16T21:00:00:Z","depth":"2","parameterNumber":3,"parameterNumberName":"V-component_of_CURRENTS"},"data":[0,0,0,0,0,0,0,0,0,0,0,0,0,0,0,0,0,0,0,0,0,0,0,0,0,0,0,0,0,0,0,0,0,0,0,0,0,0,0,0,0,0,0,0,0,0,0,0,0,0,0,0,0,0,0,0,0,0,-0.0454,-0.0452,0,-0.0318,-0.0317,-0.0316,-0.0283,-0.0284,-0.0284,-0.0285,-0.002,-0.0013,-0.0005,0,0,0,0,0,0,0,0,0,0,0,0,0,-0.0535,-0.0535,-0.0454,-0.0452,-0.045,-0.0318,-0.0317,-0.0316,-0.0283,-0.0284,-0.0284,-0.0285,-0.0023,-0.0014,-0.0005,0,0,0,0,0,0,0,0,0,0,0,0,0,-0.0465,-0.0535,-0.0455,-0.0414,-0.0409,-0.0319,-0.0317,-0.0315,-0.0283,-0.0284,-0.0285,-0.0285,-0.0025,-0.0015,-0.0004,0.0079,0,0,0.0031,0.0036,0,0,0,0,0,0,0,0,-0.0469,-0.0463,-0.0422,-0.0417,-0.0411,-0.0314,-0.0248,-0.0175,-0.0283,-0.0336,-0.0285,-0.0286,-0.0102,-0.0085,-0.0067,0.0091,0.0103,0.0032,0.0038,0.0043,0.0046,0,0,0,0,0,0,0,-0.0474,-0.0468,-0.0406,-0.042,-0.0413,-0.0351,-0.0344,-0.0234,-0.0219,-0.0332,-0.0328,-0.0304,-0.0099,-0.0078,-0.006,0.0107,0.0031,0.0041,0.0048,0.0053,0.0373,0.0375,0,0,0,0,0,0,-0.0488,-0.0473,-0.041,-0.0401,-0.0436,-0.0349,-0.0341,-0.0349,-0.0223,-0.0204,-0.0304,-0.0303,-0.0097,-0.0073,-0.005,0.012,0.0043,0.0054,0.006,0.0372,0.0374,0.0376,0,0,0,0,0,0,-0.0491,-0.0485,-0.0415,-0.0428,-0.0414,-0.0348,-0.0355,-0.0345,-0.0291,-0.0202,-0.0182,-0.0256,-0.0097,-0.0066,0.004,0.0128,0.0059,0.0069,0.037,0.0372,0.0375,0.042,0,0,0,0,0,0,-0.0495,-0.0488,-0.05,-0.043,-0.0414,-0.0328,-0.0354,-0.0342,-0.0275,-0.0272,-0.0154,-0.0133,-0.0095,0.0023,0.0051,0.0142,0.0078,0.0367,0.0371,0.0374,0.0416,0.0424,0.0431,0,0,0,0,0,-0.0499,-0.0495,-0.0503,-0.0494,-0.0434,-0.0325,-0.031,-0.0268,-0.0272,-0.0227,-0.0185,-0.0135,0.0065,0.0033,0.0066,0.0163,0.0366,0.037,0.0374,0.0413,0.0423,0.0431,0,0,0,0,0,0,-0.0525,-0.0489,-0.0496,-0.0483,-0.04,-0.0317,-0.0288,-0.0243,-0.0174,-0.0172,-0.011,-0.0084,0.0048,0.0088,0.0051,0.0258,0.0226,0.0237,0.0245,0.0255,0.0262,0.0249,0.0087,0,0,0,0,0,-0.0543,-0.0542,-0.047,-0.0454,-0.0426,-0.0353,-0.0307,-0.0253,-0.0181,-0.0152,-0.0083,-0.0007,0.0088,0.0152,0.0235,0.0357,0.0327,0.0437,0.0444,0.045,0.0459,0.0432,0.0437,0.0389,0.0389,0.0389,0,0,-0.0548,-0.0527,-0.0527,-0.046,-0.0417,-0.0344,-0.0328,-0.0231,-0.0158,-0.0127,-0.0035,0.0034,0.0123,0.0242,0.0307,0.0291,0.0448,0.0455,0.046,0.0466,0.0437,0.0441,0.0445,0.0392,0.0391,0.0391,0,0,-0.0518,-0.0544,-0.0516,-0.0447,-0.0351,-0.0312,-0.0273,-0.017,-0.0123,-0.0011,0.0021,0.0116,0.0261,0.0329,0.0386,0.0487,0.0485,0.0539,0.0581,0.0555,0.0558,0.056,0.052,0.0518,0.0544,0.0544,0.0544,0,-0.0522,-0.0486,-0.0477,-0.0405,-0.0351,-0.0297,-0.0212,-0.0151,-0.0019,0.0042,0.0024,0.0226,0.0298,0.0452,0.0476,0.0511,0.0477,0.0543,0.0561,0.0563,0.0564,0.0523,0.052,0.0546,0.0546,0.0546,0.0546,0,-0.0455,-0.0411,-0.0381,-0.0313,-0.0252,-0.016,-0.0082,-0.001,0.0034,0.0115,0.0268,0.0331,0.0451,0.0501,0.0525,0.0618,0.0584,0.0567,0.0532,0.0571,0.0526,0.0522,0.055,0.0549,0.0548,0.0548,0,0,-0.0483,-0.0363,-0.0346,-0.0291,-0.0187,-0.012,-0.0028,0.0096,0.0179,0.0277,0.0384,0.0527,0.0564,0.0626,0.0678,0.0666,0.0646,0.0625,0.0622,0.0572,0.057,0.0607,0.0606,0.062,0.062,0.0621,0.0529,0,-0.0424,-0.0295,-0.0249,-0.0123,-0.0056,0.001,0.0093,0.0215,0.0294,0.04,0.0489,0.0611,0.0614,0.0679,0.0671,0.0676,0.064,0.0671,0.0551,0.0548,0.0565,0.0606,0.0534,0.0453,0.0525,0.0525,0.0524,0,-0.0352,-0.0285,-0.0154,-0.0025,0.0007,0.009,0.0213,0.0315,0.0468,0.0533,0.0647,0.0705,0.0787,0.0729,0.0715,0.0731,0.0652,0.0609,0.0604,0.0623,0.0581,0.0429,0.0443,0.0518,0.0518,0.0519,0.0519,0,-0.0347,-0.0208,-0.0116,-0.0063,0.0079,0.0155,0.0231,0.0381,0.0482,0.0628,0.0699,0.0786,0.0846,0.0763,0.072,0.0701,0.0643,0.0598,0.0546,0.0546,0.0457,0.0451,0.0521,0.0521,0.0521,0.0522,0.0522,0,-0.0275,-0.0179,-0.0101,-0.0023,0.0086,0.0178,0.033,0.0427,0.0572,0.0701,0.0776,0.086,0.0848,0.0838,0.0731,0.0661,0.0648,0.0565,0.0536,0.0474,0.0471,0.0509,0.0509,0.0518,0.0519,0.052,0.052,0,-0.0206,-0.015,-0.003,0.0083,0.0122,0.0216,0.0388,0.0494,0.0619,0.0771,0.0817,0.093,0.0925,0.0884,0.0778,0.0711,0.0607,0.0561,0.05,0.0469,0.0506,0.0509,0.0484,0.0484,0.0485,0.0486,0.0486,0,-0.0135,-0.008,0.0027,0.0081,0.0156,0.0284,0.0379,0.0521,0.0623,0.0806,0.0867,0.0943,0.0986,0.0893,0.0771,0.0615,0.0611,0.0476,0.0442,0.0533,0.0507,0.051,0.0512,0.0316,0.0315,0.0314,0.0314,0,-0.0039,-0.0016,0.0043,0.0143,0.0239,0.0353,0.0491,0.056,0.0718,0.0821,0.0935,0.098,0.0946,0.0815,0.0686,0.0574,0.051,0.0459,0.0554,0.0372,0.0378,0.0352,0.0359,0.0307,0.0308,0.0308,0.0308,0.0309,-0.0002,0.0037,0.0084,0.0189,0.0286,0.0407,0.0493,0.0595,0.0723,0.0841,0.0902,0.0924,0.0864,0.0653,0.0562,0.0468,0.0455,0.0374,0.0374,0.0375,0.0408,0.0419,0.0358,0.0359,0.036,0.0361,0.0361,0,0.0022,0.0065,0.0135,0.0246,0.0347,0.0421,0.0547,0.0591,0.0689,0.0764,0.0829,0.0706,0.0629,0.0565,0.038,0.0318,0.0299,0.0322,0.0267,0.0271,0.0276,0.0304,0.0227,0.0227,0.0228,0.0228,0,0,0.0022,0.0075,0.0105,0.0256,0.036,0.0473,0.0538,0.0566,0.0602,0.0603,0.06,0.0655,0.0586,0.0445,0.0358,0.0272,0.0301,0.0277,0.0372,0.0316,0.0323,0.0275,0.032,0,0,0,0,0]}],[{"header":{"parameterUnit":"m.s-1","parameterCategory":2,"la1":30.2991,"la2":30.254,"lo1":-89.0895,"lo2":-89.0444,"dy":0.0017,"dx":0.0017,"nx":28,"ny":28,"refTime":"2024-07-16T21:00:00:Z","depth":"4","parameterNumber":2,"parameterNumberName":"U-component_of_CURRENTS"},"data":[0,0,0,0,0,0,0,0,0,0,0,0,0,0,0,0,0,0,0,0,0,0,0,0,0,0,0,0,0,0,0,0,0,0,0,0,0,0,0,0,0,0,0,0,0,0,0,0,0,0,0,0,0,0,0,0,0,0,-0.0344,-0.0344,0,-0.0377,-0.0377,-0.0377,-0.0396,-0.0397,-0.0397,-0.0397,-0.0387,-0.0386,-0.0386,0,0,0,0,0,0,0,0,0,0,0,0,0,-0.0305,-0.0306,-0.0344,-0.0344,-0.0345,-0.0376,-0.0377,-0.0377,-0.0396,-0.0397,-0.0397,-0.0397,-0.0387,-0.0386,-0.0386,0,0,0,0,0,0,0,0,0,0,0,0,0,-0.0327,-0.0306,-0.0344,-0.036,-0.0362,-0.0376,-0.0377,-0.0377,-0.0396,-0.0397,-0.0397,-0.0397,-0.0387,-0.0386,-0.0385,-0.0373,0,0,-0.0383,-0.0383,0,0,0,0,0,0,0,0,-0.0325,-0.0328,-0.0357,-0.0359,-0.0361,-0.0384,-0.036,-0.0374,-0.0396,-0.0381,-0.0397,-0.0398,-0.0383,-0.0382,-0.0386,-0.0373,-0.0372,-0.0383,-0.0383,-0.0382,-0.0382,0,0,0,0,0,0,0,-0.0324,-0.0327,-0.0355,-0.0357,-0.036,-0.0368,-0.0371,-0.0362,-0.0377,-0.0383,-0.0385,-0.0391,-0.0383,-0.0386,-0.0386,-0.0372,-0.0383,-0.0382,-0.0382,-0.0382,-0.0269,-0.0266,0,0,0,0,0,0,-0.0323,-0.0325,-0.0354,-0.0356,-0.0346,-0.0368,-0.0372,-0.0375,-0.0378,-0.038,-0.039,-0.0392,-0.0388,-0.0386,-0.0385,-0.0271,-0.0382,-0.0382,-0.0381,-0.0271,-0.0268,-0.0265,0,0,0,0,0,0,-0.0322,-0.0325,-0.0353,-0.0343,-0.0347,-0.0369,-0.0372,-0.0375,-0.039,-0.0385,-0.0386,-0.0404,-0.0388,-0.0386,-0.0355,-0.0274,-0.0381,-0.0381,-0.0274,-0.027,-0.0267,-0.0106,0,0,0,0,0,0,-0.032,-0.0324,-0.0332,-0.0343,-0.0348,-0.0371,-0.0372,-0.0376,-0.0394,-0.0396,-0.0396,-0.0395,-0.0388,-0.0356,-0.0354,-0.0275,-0.038,-0.0277,-0.0272,-0.0268,-0.0114,-0.0097,-0.0082,0,0,0,0,0,-0.0319,-0.0326,-0.0332,-0.0336,-0.0356,-0.0372,-0.0375,-0.039,-0.0394,-0.0404,-0.0377,-0.0396,-0.0324,-0.0353,-0.0352,-0.0271,-0.028,-0.0274,-0.0268,-0.0122,-0.01,-0.0082,0,0,0,0,0,0,-0.0315,-0.0329,-0.0336,-0.0348,-0.0364,-0.0376,-0.0393,-0.0396,-0.0386,-0.0386,-0.0373,-0.0369,-0.0305,-0.0324,-0.0357,-0.0226,-0.0301,-0.0295,-0.019,-0.017,-0.0154,-0.015,-0.0379,0,0,0,0,0,-0.0317,-0.0329,-0.0342,-0.0356,-0.0366,-0.038,-0.0391,-0.0398,-0.0391,-0.039,-0.0349,-0.0318,-0.0279,-0.0258,-0.0233,-0.0175,-0.0275,-0.0121,-0.0104,-0.009,-0.0086,-0.0211,-0.0207,-0.0246,-0.0247,-0.0247,0,0,-0.0322,-0.0332,-0.034,-0.0357,-0.0374,-0.0367,-0.0388,-0.0408,-0.036,-0.0387,-0.029,-0.0268,-0.0256,-0.0168,-0.0141,-0.0174,-0.0126,-0.0083,-0.0071,-0.0075,-0.0204,-0.0201,-0.0199,-0.0243,-0.0243,-0.0244,0,0,-0.0338,-0.0348,-0.0364,-0.0372,-0.0395,-0.0379,-0.0385,-0.0368,-0.0324,-0.024,-0.0233,-0.0181,-0.0092,-0.0068,-0.0048,0.0056,-0.0044,0.009,0.0187,0.0068,0.0069,0.0069,-0.0039,-0.005,0.0106,0.0106,0.0106,0,-0.0343,-0.0355,-0.0372,-0.0384,-0.0368,-0.0379,-0.0364,-0.0323,-0.0272,-0.0204,-0.0188,-0.0055,-0.0044,0.0032,0.0107,0.0093,0.0011,0.0118,0.0085,0.0083,0.0079,-0.0031,-0.0046,0.0114,0.0113,0.0112,0.0112,0,-0.0362,-0.0372,-0.0383,-0.0377,-0.0357,-0.0359,-0.0296,-0.0225,-0.0141,-0.0079,0.0046,0.0075,0.0154,0.0184,0.0201,0.0223,0.0167,0.011,0.003,0.0093,-0.0027,-0.0045,0.0126,0.0123,0.0121,0.0119,0,0,-0.0366,-0.0389,-0.0394,-0.0374,-0.0347,-0.0324,-0.0214,-0.0108,-0.0023,0.0081,0.0184,0.0305,0.033,0.035,0.0356,0.029,0.0225,0.023,0.022,0.0114,-0.003,0.009,0.0079,0.0161,0.0158,0.0156,-0.0101,0,-0.0372,-0.0388,-0.0369,-0.0325,-0.0315,-0.0241,-0.0125,-0.0021,0.0092,0.0198,0.025,0.0344,0.0387,0.0435,0.0387,0.0246,0.0184,0.0301,-0.0067,-0.0078,0.0012,0.0065,0.0149,-0.0115,-0.012,-0.0123,-0.0125,0,-0.038,-0.0387,-0.0363,-0.0272,-0.0251,-0.0174,0.0014,0.0107,0.0244,0.033,0.0421,0.0446,0.0448,0.0433,0.0242,0.0318,0.0189,0.0062,0.0046,0.0087,0.0009,-0.0195,-0.016,-0.0158,-0.0155,-0.0153,-0.015,0,-0.0374,-0.0354,-0.032,-0.0305,-0.0213,-0.0099,0.0011,0.0175,0.0261,0.0401,0.0428,0.0462,0.0422,0.0291,0.012,0.0175,-0.0184,-0.0172,-0.0195,-0.0191,-0.0303,-0.03,-0.0336,-0.0336,-0.0335,-0.0335,-0.0334,0,-0.0361,-0.0344,-0.03,-0.0289,-0.0162,-0.0068,0.0094,0.0222,0.0335,0.0372,0.049,0.0452,0.0377,0.0198,0.0072,-0.0117,-0.0231,-0.0166,-0.0239,-0.0224,-0.0209,-0.0316,-0.0311,-0.0344,-0.0342,-0.034,-0.0339,0,-0.0366,-0.0362,-0.034,-0.0238,-0.017,-0.0067,0.0121,0.0204,0.0332,0.0353,0.0386,0.0385,0.0243,0.0119,-0.0165,-0.0201,-0.0399,-0.0456,-0.0445,-0.0518,-0.0304,-0.0287,-0.0439,-0.0437,-0.0435,-0.0433,-0.0432,0,-0.0365,-0.0368,-0.0324,-0.0284,-0.0217,-0.0062,0.0037,0.0207,0.0247,0.0268,0.0223,0.0166,0.0155,-0.0141,-0.0255,-0.0434,-0.044,-0.0548,-0.0335,-0.0253,-0.0311,-0.0297,-0.0283,-0.0429,-0.0428,-0.0428,-0.0427,0,-0.0383,-0.0397,-0.0392,-0.0326,-0.0226,-0.014,0.0001,0.0023,0.0136,0.0193,0.0149,0.0136,-0.0023,-0.0112,-0.0241,-0.0397,-0.0457,-0.0526,-0.0527,-0.0328,-0.0243,-0.0299,-0.0287,-0.042,-0.0421,-0.0422,-0.0422,0,-0.0406,-0.0419,-0.0433,-0.0341,-0.0273,-0.0213,-0.0129,-0.006,0.0014,0.0076,-0.0002,-0.004,-0.0065,-0.011,-0.0298,-0.0331,-0.0269,-0.0274,-0.0287,-0.0296,-0.0115,0.0023,-0.0128,0,0,0,0,0,-0.0408,-0.0429,-0.0414,-0.0363,-0.0322,-0.0242,-0.0167,-0.011,-0.0049,-0.005,0.003,-0.0065,-0.0104,-0.0165,-0.016,-0.0269,-0.0331,-0.0269,-0.0358,-0.0382,-0.039,-0.0182,0,0,0,0,0,0,-0.0413,-0.0443,-0.0446,-0.041,-0.0348,-0.0291,-0.0227,-0.0194,-0.0158,-0.0096,-0.011,-0.0045,-0.01,-0.0082,-0.0151,-0.0166,-0.0218,-0.0273,-0.0273,-0.0378,-0.0385,-0.0392,-0.018,0,0,0,0,0]},{"header":{"parameterUnit":"m.s-1","parameterCategory":2,"la1":30.2991,"la2":30.254,"lo1":-89.0895,"lo2":-89.0444,"dy":0.0017,"dx":0.0017,"nx":28,"ny":28,"refTime":"2024-07-16T21:00:00:Z","depth":"4","parameterNumber":3,"parameterNumberName":"V-component_of_CURRENTS"},"data":[0,0,0,0,0,0,0,0,0,0,0,0,0,0,0,0,0,0,0,0,0,0,0,0,0,0,0,0,0,0,0,0,0,0,0,0,0,0,0,0,0,0,0,0,0,0,0,0,0,0,0,0,0,0,0,0,0,0,0.0395,0.0395,0,0.0444,0.0445,0.0446,0.0512,0.0512,0.0513,0.0514,0.0594,0.0596,0.0597,0,0,0,0,0,0,0,0,0,0,0,0,0,0.0361,0.0361,0.0395,0.0395,0.0395,0.0444,0.0445,0.0446,0.0511,0.0512,0.0513,0.0514,0.0594,0.0596,0.0597,0,0,0,0,0,0,0,0,0,0,0,0,0,0.0392,0.0361,0.0395,0.0432,0.0436,0.0444,0.0445,0.0446,0.0511,0.0512,0.0514,0.0515,0.0593,0.0595,0.0597,0.0584,0,0,0.0603,0.0604,0,0,0,0,0,0,0,0,0.039,0.0393,0.0426,0.043,0.0434,0.0471,0.0463,0.0493,0.0511,0.0485,0.0514,0.0516,0.0553,0.0559,0.0568,0.0588,0.0591,0.0604,0.0605,0.0606,0.0606,0,0,0,0,0,0,0,0.0388,0.0391,0.0417,0.0426,0.0431,0.0448,0.0454,0.0469,0.0514,0.0487,0.0492,0.0493,0.0556,0.0566,0.0571,0.0592,0.0604,0.0605,0.0607,0.0607,0.057,0.0568,0,0,0,0,0,0,0.0375,0.0389,0.0415,0.0418,0.0412,0.0447,0.0454,0.046,0.0513,0.0522,0.0492,0.0496,0.0562,0.0568,0.0574,0.0591,0.0606,0.0608,0.0609,0.0572,0.057,0.0567,0,0,0,0,0,0,0.0374,0.0377,0.0413,0.0403,0.0408,0.0446,0.0452,0.046,0.0511,0.0516,0.0526,0.0539,0.0563,0.0571,0.0625,0.0593,0.0609,0.061,0.0575,0.0572,0.0569,0.0606,0,0,0,0,0,0,0.0373,0.0376,0.0387,0.0402,0.0408,0.0445,0.0451,0.046,0.0506,0.0513,0.0559,0.0565,0.0565,0.0622,0.0627,0.0597,0.0612,0.0578,0.0573,0.057,0.0607,0.0604,0.0602,0,0,0,0,0,0.0372,0.0382,0.0387,0.0391,0.0418,0.0446,0.0453,0.0484,0.0507,0.0535,0.057,0.0566,0.0596,0.0625,0.063,0.0599,0.058,0.0575,0.057,0.0609,0.0605,0.0602,0,0,0,0,0,0,0.0367,0.0389,0.0396,0.0411,0.0437,0.0457,0.0487,0.0507,0.0555,0.0579,0.0586,0.0594,0.0609,0.0601,0.0632,0.0564,0.0567,0.0563,0.0594,0.059,0.0588,0.0593,0.0614,0,0,0,0,0,0.0368,0.0388,0.0407,0.0421,0.0443,0.0473,0.0493,0.052,0.0554,0.058,0.0622,0.0622,0.0581,0.0594,0.0584,0.0589,0.0574,0.055,0.0547,0.0545,0.0547,0.0478,0.0471,0.0551,0.0551,0.0551,0,0,0.0369,0.0383,0.0394,0.0423,0.0452,0.0484,0.0492,0.0543,0.0562,0.0579,0.0655,0.0638,0.058,0.0569,0.0569,0.0573,0.0522,0.0539,0.0539,0.0541,0.0472,0.0465,0.0459,0.0548,0.0548,0.0549,0,0,0.0378,0.0401,0.0426,0.0455,0.0502,0.0519,0.0543,0.0604,0.0629,0.0678,0.0657,0.064,0.065,0.0586,0.0541,0.0515,0.0509,0.0493,0.0496,0.043,0.0424,0.0418,0.0438,0.0434,0.0492,0.0492,0.0492,0,0.0383,0.0413,0.0437,0.0472,0.0504,0.0541,0.0584,0.0597,0.0671,0.0674,0.0711,0.065,0.0633,0.0528,0.0516,0.0509,0.0507,0.0526,0.0431,0.0424,0.0418,0.0439,0.0434,0.0493,0.0493,0.0493,0.0493,0,0.0403,0.0446,0.0472,0.0524,0.0556,0.0609,0.063,0.0675,0.0714,0.0711,0.068,0.0651,0.0607,0.0564,0.0543,0.0452,0.0482,0.0441,0.0454,0.0413,0.0437,0.0432,0.0495,0.0494,0.0494,0.0494,0,0,0.0389,0.047,0.0488,0.0533,0.0601,0.0634,0.0658,0.0674,0.0673,0.0705,0.0671,0.0597,0.0594,0.054,0.049,0.0429,0.0404,0.0433,0.0429,0.0481,0.0331,0.0281,0.027,0.0355,0.0353,0.0351,0.0387,0,0.0415,0.0482,0.0519,0.0605,0.0654,0.0692,0.0705,0.0715,0.0713,0.0696,0.0606,0.0575,0.057,0.0554,0.0486,0.039,0.0381,0.0403,0.0338,0.0338,0.0318,0.0256,0.0344,0.0382,0.0381,0.038,0.0379,0,0.0431,0.0483,0.0573,0.0654,0.0681,0.0745,0.0776,0.0785,0.0722,0.0712,0.0648,0.0595,0.0493,0.0504,0.0374,0.0395,0.0394,0.0342,0.0341,0.0272,0.0272,0.0413,0.0368,0.0369,0.037,0.037,0.0371,0,0.0414,0.0521,0.0603,0.064,0.0731,0.0792,0.0833,0.0813,0.0795,0.0736,0.0694,0.0585,0.0515,0.0455,0.0377,0.0385,0.0243,0.0233,0.021,0.0211,0.0239,0.0244,0.0197,0.0197,0.0197,0.0197,0.0197,0,0.0419,0.0488,0.063,0.0682,0.078,0.0834,0.0886,0.0893,0.0849,0.075,0.0725,0.0578,0.0498,0.0393,0.0365,0.0254,0.025,0.0204,0.0187,0.026,0.0266,0.0239,0.0243,0.0198,0.0198,0.0197,0.0197,0,0.0389,0.0474,0.0585,0.0731,0.0789,0.0867,0.0947,0.0926,0.0917,0.0774,0.0757,0.0582,0.0417,0.0376,0.0244,0.0223,0.0141,0.0141,0.0276,0.0268,0.018,0.0185,0.0098,0.0096,0.0095,0.0093,0.0092,0,0.0367,0.0431,0.0625,0.0696,0.0796,0.0906,0.0936,0.097,0.09,0.0701,0.0582,0.0438,0.0308,0.0128,0.0074,0.0077,0.0082,0.0119,0.0102,0.0163,0.0156,0.0165,0.0172,0.0089,0.0088,0.0088,0.0087,0,0.0342,0.0442,0.0527,0.068,0.0786,0.0827,0.0865,0.0797,0.0711,0.0718,0.0425,0.0309,0.0116,0.0011,0.0067,0.0037,0.0105,0.01,0.0104,0.0089,0.015,0.0147,0.0157,0.0081,0.0082,0.0083,0.0083,0,0.0325,0.0373,0.051,0.0632,0.0729,0.0693,0.0721,0.0629,0.0584,0.0395,0.0256,0.0095,0.0029,-0.0018,-0.0044,-0.0009,-0.0014,0.0029,0.0037,0.0044,0.0001,0.007,-0.0054,0,0,0,0,0,0.0311,0.0345,0.0434,0.0536,0.0614,0.067,0.0627,0.0612,0.0508,0.032,0.0314,0.0136,0.0016,-0.0074,-0.0049,-0.0095,-0.001,-0.0069,0.0045,0.0046,0.0054,0.0004,0,0,0,0,0,0,0.0293,0.0377,0.0404,0.0436,0.0473,0.0513,0.0468,0.0393,0.03,0.0216,0.0167,0.0178,0.009,0.0041,-0.0033,-0.0039,0.0038,-0.009,-0.0089,0.0042,0.0049,0.0055,0.0007,0,0,0,0,0]}]]